User: anonymous
Location: Caltech
(34.1382°N, 118.1253°W)
Time: 20:34:10
(UTC-07:00)
Language:

GPS 2-04 Rocket1 - Orbit

View from above orbital plane
View from above orbital plane
View from above satellite
View from above satellite

Ground track
Ground track

The orbit data is extracted from the following two-line orbital elements,

1 20303U 89085B   14234.66626530  .00004850  00000-0  23306-3 0  8517
2 20303 035.6331 303.2102 0139539 136.2859 357.5641 15.10145729343945
Epoch (UTC): 22 August 2014 15:59:25
Eccentricity: 0.0139539
inclination: 35.6331°
perigee height: 439 km
apogee height: 632 km
right ascension of ascending node: 303.2102°
argument of perigee: 136.2859°
revolutions per day: 15.10145729
mean anomaly at epoch: 357.5641°
orbit number at epoch: 34394

The dashed part of the orbit path shows where the satellite is in the earth's shadow,  

DLR